[[{"header":{"parameterUnit":"m.s-1","parameterCategory":1,"la1":30.2991,"la2":30.254,"lo1":-89.0895,"lo2":-89.0444,"dy":0.0017,"dx":0.0017,"nx":28,"ny":28,"refTime":"2024-05-07T21:00:00:Z","depth":0,"parameterNumber":2,"parameterNumberName":"U-component_of_WINDS"},"data":[0,0,0,0,0,0,0,0,0,0,0,0,0,0,0,0,0,0,0,0,0,0,0,0,0,0,0,0,0,0,0,0,0,0,0,0,0,0,0,0,0,0,0,0,0,0,0,0,0,0,0,0,0,0,0,0,0,0,-0.1136,-0.1135,0,-0.1076,-0.1075,-0.1074,-0.1057,-0.1057,-0.1058,-0.1058,-0.0994,-0.0992,-0.099,0,0,0,0,0,0,0,0,0,0,0,0,0,-0.1234,-0.1233,-0.1136,-0.1135,-0.1134,-0.1076,-0.1075,-0.1074,-0.1057,-0.1057,-0.1058,-0.1058,-0.0995,-0.0993,-0.099,0,0,0,0,0,0,0,0,0,0,0,0,0,-0.1185,-0.1232,-0.1136,-0.1119,-0.1117,-0.1076,-0.1075,-0.1074,-0.1057,-0.1057,-0.1058,-0.1058,-0.0996,-0.0993,-0.099,-0.0961,0,0,-0.0981,-0.0979,0,0,0,0,0,0,0,0,-0.1188,-0.1181,-0.1122,-0.112,-0.1118,-0.1074,-0.1086,-0.1036,-0.1057,-0.108,-0.1058,-0.1059,-0.102,-0.1015,-0.1003,-0.0958,-0.0955,-0.098,-0.0979,-0.0977,-0.0976,0,0,0,0,0,0,0,-0.1191,-0.1184,-0.1112,-0.1121,-0.1119,-0.1114,-0.1107,-0.1077,-0.1048,-0.1078,-0.1076,-0.1069,-0.1019,-0.1006,-0.1001,-0.0954,-0.098,-0.0978,-0.0976,-0.0975,-0.0883,-0.0882,0,0,0,0,0,0,-0.1198,-0.1187,-0.1114,-0.111,-0.1155,-0.1111,-0.1104,-0.1088,-0.1048,-0.1043,-0.1069,-0.1069,-0.1011,-0.1005,-0.0999,-0.0963,-0.0977,-0.0974,-0.0973,-0.0883,-0.0883,-0.0882,0,0,0,0,0,0,-0.12,-0.1191,-0.1116,-0.1148,-0.1138,-0.1109,-0.1091,-0.1086,-0.1073,-0.1042,-0.1036,-0.1061,-0.1011,-0.1003,-0.0971,-0.096,-0.0973,-0.097,-0.0884,-0.0883,-0.0882,-0.089,0,0,0,0,0,0,-0.1203,-0.1192,-0.1181,-0.1148,-0.1137,-0.109,-0.109,-0.1085,-0.1068,-0.1067,-0.1033,-0.1027,-0.1011,-0.0975,-0.0968,-0.0956,-0.0968,-0.0885,-0.0884,-0.0883,-0.089,-0.0889,-0.0888,0,0,0,0,0,-0.1206,-0.1186,-0.1181,-0.1172,-0.1123,-0.1089,-0.1083,-0.1065,-0.1067,-0.1056,-0.1036,-0.1028,-0.0963,-0.0972,-0.0964,-0.0951,-0.0886,-0.0884,-0.0883,-0.0891,-0.0889,-0.0888,0,0,0,0,0,0,-0.1218,-0.1181,-0.1175,-0.1143,-0.112,-0.1086,-0.1071,-0.1064,-0.1038,-0.1038,-0.1017,-0.1009,-0.0978,-0.0961,-0.0972,-0.0921,-0.0924,-0.0921,-0.0933,-0.0931,-0.093,-0.0935,-0.0965,0,0,0,0,0,-0.1217,-0.1193,-0.1162,-0.1137,-0.1125,-0.11,-0.1085,-0.1074,-0.1048,-0.1038,-0.1015,-0.099,-0.0964,-0.0947,-0.0921,-0.0888,-0.088,-0.0875,-0.0874,-0.0873,-0.087,-0.0852,-0.0849,-0.0877,-0.0877,-0.0877,0,0,-0.1214,-0.1191,-0.1177,-0.1138,-0.1119,-0.1094,-0.1092,-0.1066,-0.1048,-0.1033,-0.1001,-0.0984,-0.0955,-0.0922,-0.0906,-0.0907,-0.0861,-0.0871,-0.0871,-0.0869,-0.085,-0.0847,-0.0845,-0.0876,-0.0877,-0.0877,0,0,-0.1197,-0.1177,-0.1154,-0.1134,-0.1105,-0.1088,-0.1083,-0.1051,-0.1039,-0.1007,-0.0995,-0.0973,-0.0928,-0.0907,-0.0891,-0.0866,-0.0858,-0.0858,-0.0852,-0.0834,-0.0832,-0.083,-0.0821,-0.0818,-0.0856,-0.0856,-0.0856,0,-0.1197,-0.116,-0.1142,-0.1118,-0.1101,-0.1087,-0.1063,-0.1044,-0.1008,-0.0996,-0.0998,-0.0941,-0.092,-0.0882,-0.0876,-0.0864,-0.0856,-0.0862,-0.0834,-0.0832,-0.0829,-0.082,-0.0817,-0.0856,-0.0856,-0.0856,-0.0856,0,-0.1162,-0.1137,-0.1121,-0.1087,-0.1068,-0.1044,-0.1022,-0.1005,-0.0995,-0.0978,-0.0945,-0.092,-0.0889,-0.0879,-0.0869,-0.084,-0.0841,-0.0838,-0.0841,-0.0827,-0.0818,-0.0815,-0.0856,-0.0856,-0.0856,-0.0856,0,0,-0.115,-0.1106,-0.1101,-0.1085,-0.1051,-0.1031,-0.1006,-0.0976,-0.0962,-0.0937,-0.0915,-0.0877,-0.0875,-0.0857,-0.0844,-0.0828,-0.081,-0.0827,-0.0826,-0.0825,-0.0776,-0.0777,-0.0774,-0.0804,-0.0804,-0.0803,-0.0778,0,-0.1128,-0.1083,-0.1066,-0.1029,-0.1005,-0.0992,-0.097,-0.0947,-0.0931,-0.0908,-0.089,-0.0864,-0.0863,-0.0851,-0.0835,-0.0815,-0.0799,-0.0817,-0.0783,-0.0782,-0.0791,-0.0769,-0.0771,-0.0749,-0.0774,-0.0774,-0.0773,0,-0.1096,-0.1072,-0.1032,-0.1002,-0.0991,-0.0972,-0.0943,-0.0922,-0.0895,-0.0884,-0.0864,-0.0852,-0.0825,-0.0829,-0.0791,-0.0803,-0.0788,-0.0776,-0.0775,-0.0771,-0.0777,-0.0764,-0.0741,-0.0738,-0.0768,-0.0768,-0.0769,0,-0.1091,-0.1048,-0.1019,-0.1006,-0.0969,-0.0956,-0.094,-0.0914,-0.0897,-0.0872,-0.086,-0.0832,-0.0816,-0.0794,-0.0775,-0.078,-0.0738,-0.0741,-0.0728,-0.0729,-0.0719,-0.072,-0.0693,-0.0711,-0.0711,-0.0711,-0.0711,0,-0.1068,-0.1045,-0.1016,-0.0998,-0.0971,-0.0952,-0.0926,-0.0909,-0.0886,-0.0864,-0.0851,-0.083,-0.0807,-0.0783,-0.0768,-0.0738,-0.0731,-0.0721,-0.0718,-0.0722,-0.0724,-0.0712,-0.0713,-0.071,-0.071,-0.071,-0.071,0,-0.1058,-0.1038,-0.1005,-0.0973,-0.0965,-0.0946,-0.0919,-0.0901,-0.0885,-0.0857,-0.0849,-0.0823,-0.0795,-0.0774,-0.0737,-0.0727,-0.0695,-0.0691,-0.0704,-0.0702,-0.069,-0.0691,-0.0655,-0.0649,-0.067,-0.067,-0.067,0,-0.1044,-0.1026,-0.0992,-0.0977,-0.0961,-0.0937,-0.092,-0.09,-0.0883,-0.0851,-0.0836,-0.0807,-0.0783,-0.0738,-0.0715,-0.0687,-0.0682,-0.0671,-0.0678,-0.0683,-0.0682,-0.0683,-0.0681,-0.067,-0.067,-0.067,-0.067,0,-0.1022,-0.1014,-0.0989,-0.0962,-0.0942,-0.0919,-0.0896,-0.0884,-0.086,-0.0841,-0.0812,-0.0793,-0.0756,-0.0727,-0.0697,-0.068,-0.0671,-0.0668,-0.0664,-0.0668,-0.0676,-0.0671,-0.0701,-0.0669,-0.0669,-0.0669,-0.0669,-0.0669,-0.101,-0.0993,-0.0967,-0.094,-0.0921,-0.09,-0.0881,-0.0863,-0.0838,-0.0807,-0.0796,-0.0767,-0.074,-0.0698,-0.0681,-0.0657,-0.0657,-0.065,-0.0649,-0.0647,-0.0647,-0.0681,-0.0651,-0.0651,-0.0651,-0.0651,-0.0651,0,-0.0987,-0.097,-0.0946,-0.0914,-0.0893,-0.0887,-0.0861,-0.0844,-0.0818,-0.0795,-0.0771,-0.0738,-0.071,-0.0685,-0.0656,-0.0641,-0.0636,-0.0634,-0.0635,-0.0631,-0.0649,-0.0656,-0.0639,-0.0639,-0.0639,-0.0639,-0.0639,-0.0639,-0.0973,-0.0944,-0.0932,-0.0893,-0.0875,-0.0847,-0.0832,-0.0812,-0.0793,-0.0757,-0.0734,-0.0718,-0.0694,-0.0663,-0.0637,-0.063,-0.062,-0.0619,-0.0611,-0.0628,-0.063,-0.0631,-0.0638,-0.0617,-0.0617,-0.0595,-0.0595,-0.0595]},{"header":{"parameterUnit":"m.s-1","parameterCategory":1,"la1":30.2991,"la2":30.254,"lo1":-89.0895,"lo2":-89.0444,"dy":0.0017,"dx":0.0017,"nx":28,"ny":28,"refTime":"2024-05-07T21:00:00:Z","depth":0,"parameterNumber":3,"parameterNumberName":"V-component_of_WINDS"},"data":[0,0,0,0,0,0,0,0,0,0,0,0,0,0,0,0,0,0,0,0,0,0,0,0,0,0,0,0,0,0,0,0,0,0,0,0,0,0,0,0,0,0,0,0,0,0,0,0,0,0,0,0,0,0,0,0,0,0,4.4389,4.4391,0,4.4517,4.4518,4.452,4.455,4.4549,4.4548,4.4547,4.4677,4.4681,4.4685,0,0,0,0,0,0,0,0,0,0,0,0,0,4.4172,4.4175,4.4389,4.4391,4.4392,4.4516,4.4518,4.452,4.455,4.4549,4.4548,4.4547,4.4675,4.468,4.4685,0,0,0,0,0,0,0,0,0,0,0,0,0,4.4279,4.4177,4.4389,4.4422,4.4427,4.4516,4.4518,4.452,4.455,4.4549,4.4547,4.4546,4.4674,4.468,4.4686,4.4751,0,0,4.4705,4.4708,0,0,0,0,0,0,0,0,4.4273,4.4287,4.4416,4.442,4.4425,4.4516,4.4489,4.4598,4.455,4.4503,4.4547,4.4546,4.4624,4.4634,4.4661,4.4757,4.4763,4.4706,4.471,4.4713,4.4714,0,0,0,0,0,0,0,4.4266,4.4282,4.444,4.4418,4.4423,4.4431,4.4445,4.451,4.4569,4.4507,4.451,4.4524,4.4626,4.4655,4.4664,4.4765,4.4706,4.4712,4.4715,4.4718,4.4921,4.4923,0,0,0,0,0,0,4.4252,4.4275,4.4436,4.4443,4.4344,4.4436,4.4451,4.4488,4.4569,4.458,4.4525,4.4525,4.4645,4.4657,4.4669,4.4751,4.4713,4.4719,4.4722,4.492,4.4922,4.4923,0,0,0,0,0,0,4.4248,4.4266,4.443,4.436,4.4382,4.4441,4.4482,4.4491,4.452,4.4582,4.4593,4.4544,4.4644,4.466,4.4731,4.4756,4.4721,4.4727,4.4918,4.492,4.4923,4.4915,0,0,0,0,0,0,4.4241,4.4264,4.429,4.4361,4.4385,4.449,4.4484,4.4495,4.4531,4.4532,4.4602,4.4613,4.4644,4.4721,4.4737,4.4764,4.4732,4.4916,4.4919,4.4922,4.4913,4.4917,4.492,0,0,0,0,0,4.4233,4.4282,4.4291,4.431,4.4418,4.4491,4.4505,4.4541,4.4533,4.4559,4.4599,4.461,4.4751,4.4728,4.4746,4.4776,4.4915,4.4918,4.4922,4.4912,4.4916,4.492,0,0,0,0,0,0,4.4212,4.4292,4.4303,4.4376,4.4427,4.4496,4.453,4.4545,4.4598,4.4597,4.4639,4.4655,4.4723,4.4756,4.473,4.4843,4.4832,4.484,4.4819,4.4823,4.4827,4.4817,4.4737,0,0,0,0,0,4.4216,4.4269,4.4336,4.4394,4.4419,4.447,4.4503,4.4527,4.4581,4.4602,4.4648,4.47,4.4756,4.4791,4.4846,4.4919,4.4935,4.4948,4.4951,4.4954,4.4959,4.5001,4.5008,4.4935,4.4935,4.4935,0,0,4.4225,4.4275,4.4305,4.4391,4.4433,4.4487,4.4488,4.4545,4.4585,4.4611,4.468,4.4716,4.4777,4.4848,4.4882,4.4879,4.4983,4.4958,4.496,4.4964,4.5005,4.5012,4.5018,4.4938,4.4937,4.4937,0,0,4.4267,4.4311,4.4364,4.4407,4.4471,4.4505,4.4517,4.4585,4.461,4.4681,4.4701,4.475,4.4845,4.4888,4.4922,4.4983,4.4995,4.4999,4.5016,4.5056,4.5062,4.5067,4.5089,4.5096,4.5005,4.5005,4.5005,0,4.427,4.4352,4.439,4.4446,4.4483,4.451,4.4564,4.4604,4.4682,4.4707,4.4702,4.4823,4.4865,4.4948,4.4963,4.499,4.5006,4.4991,4.5058,4.5064,4.5069,4.509,4.5098,4.5005,4.5005,4.5005,4.5005,0,4.4352,4.4408,4.4444,4.452,4.4561,4.4616,4.4662,4.47,4.4719,4.4754,4.4826,4.4878,4.4945,4.4966,4.4986,4.5052,4.5048,4.505,4.504,4.5075,4.5096,4.5105,4.5005,4.5005,4.5005,4.5005,0,0,4.4384,4.4481,4.4493,4.4528,4.4601,4.4646,4.4702,4.4768,4.4799,4.4852,4.4901,4.4982,4.4984,4.5023,4.5048,4.5083,4.5128,4.5081,4.5083,4.5088,4.5205,4.5202,4.5211,4.5137,4.5139,4.514,4.5199,0,4.4436,4.4538,4.4574,4.4658,4.4711,4.4738,4.4787,4.4837,4.4871,4.4921,4.4959,4.5015,4.5014,4.5038,4.5074,4.5115,4.5152,4.5111,4.5183,4.5185,4.5166,4.5222,4.5219,4.5272,4.5208,4.5209,4.521,0,4.4509,4.4565,4.4654,4.4721,4.4745,4.4789,4.4852,4.4899,4.4957,4.4979,4.5023,4.5046,4.5107,4.5093,4.5177,4.5149,4.518,4.5205,4.5208,4.5216,4.5199,4.5231,4.529,4.5298,4.5223,4.5222,4.5221,0,4.4524,4.462,4.4687,4.4716,4.4796,4.4826,4.4861,4.4918,4.4955,4.501,4.5035,4.5096,4.513,4.5177,4.5216,4.5203,4.5297,4.5286,4.5317,4.5316,4.5335,4.5333,4.54,4.5356,4.5356,4.5355,4.5355,0,4.4578,4.4631,4.4694,4.4735,4.4796,4.4838,4.4897,4.4933,4.4984,4.5032,4.5059,4.5104,4.5153,4.5204,4.5235,4.53,4.5315,4.5335,4.5342,4.5332,4.533,4.5353,4.535,4.5358,4.5357,4.5357,4.5356,0,4.4603,4.4648,4.4722,4.4792,4.4811,4.4853,4.4913,4.4954,4.499,4.5051,4.5067,4.5123,4.5185,4.5229,4.5308,4.5329,4.5399,4.5406,4.538,4.5383,4.5411,4.5408,4.5495,4.5509,4.5455,4.5456,4.5456,0,4.4635,4.4677,4.4752,4.4786,4.4821,4.4876,4.4915,4.4958,4.4997,4.5066,4.5099,4.5163,4.5216,4.5313,4.5361,4.5422,4.5431,4.5458,4.544,4.5429,4.5432,4.5428,4.5433,4.546,4.546,4.5461,4.5461,0,4.4685,4.4706,4.476,4.4823,4.4868,4.4919,4.497,4.4997,4.5049,4.5092,4.5155,4.5197,4.5279,4.5342,4.5408,4.5444,4.5461,4.5466,4.5476,4.5466,4.5449,4.5459,4.5386,4.5464,4.5463,4.5463,4.5463,4.5463,4.4715,4.4754,4.4813,4.4873,4.4916,4.4964,4.5006,4.5047,4.5101,4.5171,4.5194,4.526,4.5318,4.5408,4.5445,4.5498,4.5496,4.5511,4.5515,4.5518,4.5518,4.5441,4.551,4.551,4.551,4.551,4.551,0,4.4767,4.4807,4.4861,4.4933,4.498,4.4993,4.5051,4.509,4.5148,4.5201,4.5253,4.5327,4.5388,4.5441,4.5505,4.5537,4.5547,4.5553,4.5551,4.5559,4.5515,4.55,4.5544,4.5544,4.5544,4.5544,4.5544,4.5544,4.4799,4.4866,4.4893,4.4982,4.5021,4.5087,4.5119,4.5163,4.5206,4.5287,4.5338,4.5373,4.5426,4.5494,4.5552,4.5566,4.5588,4.5592,4.5608,4.5566,4.5562,4.5558,4.5544,4.5596,4.5596,4.5647,4.5647,4.5648]}]]